• MPC Preparation (Info)

  • MPEC 2016-C67 : 2016 CE30

    The following Minor Planet Electronic Circular may be linked-to from your own Web pages, but must not otherwise be redistributed electronically.

    A form allowing access to any MPEC is at the bottom of this page.


    Read MPEC 2016-C66 Read MPEC 2016-C68


    M.P.E.C. 2016-C67                                Issued 2016 Feb. 6, 21:00 UT
    
         The Minor Planet Electronic Circulars contain information on unusual
             minor planets and routine data on comets.  They are published
        on behalf of Division F of the International Astronomical Union by the
              Minor Planet Center, Smithsonian Astrophysical Observatory,
                              Cambridge, MA 02138, U.S.A.
    
                 Prepared using the Tamkin Foundation Computer Network
    
                                  MPC@CFA.HARVARD.EDU
                URL https://www.minorplanetcenter.net/    ISSN 1523-6714
    
                                       2016 CE30
    
    Observations:
         K16C30E* C2016 02 03.41771 10 37 16.458+19 29 15.07         21.1 wLEC067F51
         K16C30E  C2016 02 03.42958 10 37 15.021+19 29 12.25         21.2 wLEC067F51
         K16C30E  C2016 02 03.44147 10 37 13.566+19 29 09.09         21.1 wLEC067F51
         K16C30E  C2016 02 03.45341 10 37 12.115+19 29 06.16         21.2 wLEC067F51
         K16C30E  C2016 02 05.38906 10 33 26.094+19 20 15.17         21.0 wLEC067F51
         K16C30E  C2016 02 05.39748 10 33 24.02 +19 20 10.8          20.5 RoEC067926
         K16C30E  C2016 02 05.40206 10 33 24.433+19 20 11.83         21.0 wLEC067F51
         K16C30E  C2016 02 05.40804 10 33 22.64 +19 20 07.2          20.7 RoEC067926
         K16C30E  C2016 02 05.41504 10 33 22.782+19 20 08.40         20.9 wLEC067F51
         K16C30E  C2016 02 05.41862 10 33 21.28 +19 20 04.7          20.4 RoEC067926
         K16C30E  C2016 02 06.34386 10 31 29.59 +19 15 38.6          21.7 VqEC067I52
         K16C30E  C2016 02 06.35535 10 31 28.06 +19 15 33.4          22.0 VqEC067I52
         K16C30E  C2016 02 06.35992 10 31 27.45 +19 15 32.2          21.1 VqEC067I52
         K16C30E  C2016 02 06.56219 10 31 01.950+19 14 37.04         21.6 wLEC067F51
         K16C30E  C2016 02 06.57488 10 31 00.285+19 14 33.07         21.6 wLEC067F51
         K16C30E  C2016 02 06.58762 10 30 58.626+19 14 28.89         21.5 wLEC067F51
         K16C30E  C2016 02 06.60037 10 30 56.949+19 14 24.91         21.3 wLEC067F51
    
    Observer details:
    926 Tenagra II Observatory.  Observers M. Schwartz, P. R. Holvorcem.  Measurer
        M. Schwartz.  0.41-m f/3.75 astrograph + CCD, 0.81-m f/7 Ritchey-Chretien
        + CCD.
    F51 Pan-STARRS 1, Haleakala.  Observers B. Gibson, T. Goggia, N. Primak,
        A. Schultz, M. Willman.  Measurers K. Chambers, S. Chastel, L. Denneau,
        H. Flewelling, M. Huber, E. Lilly, E. Magnier, R. Wainscoat, C. Waters,
        R. Weryk.  1.8-m Ritchey-Chretien + CCD.
    I52 Steward Observatory, Mt. Lemmon Station.  Observer A. R. Gibbs.  Measurers
        E. J. Christensen, D. C. Fuls, A. R. Gibbs, A. D. Grauer, J. A. Johnson,
        R. A. Kowalski, S. M. Larson, G. J. Leonard, R. G. Matheny, R. L. Seaman,
        F. C. Shelly.  1.0-m reflector + CCD.
    
    Orbital elements:
    2016 CE30                                                Earth MOID = 0.2591 AU
    Epoch 2016 Jan. 13.0 TT = JDT 2457400.5                 MPC
    M  83.09705              (2000.0)            P               Q
    n   0.62084331     Peri.   53.40305     +0.83458645     -0.54834132
    a   1.3608640      Node   339.68547     +0.44428662     +0.72666345
    e   0.0885028      Incl.    8.74688     +0.32569136     +0.41386233
    P   1.59           H   21.5           G   0.15           U   8
    Residuals in seconds of arc
    160203 F51  0.0   0.0     160205 F51  0.1-  0.0     160206 I52  0.2-  0.6-
    160203 F51  0.1+  0.1+    160205 926  0.1-  0.1-    160206 F51  0.0   0.0
    160203 F51  0.1-  0.1-    160205 F51  0.0   0.1-    160206 F51  0.0   0.1+
    160203 F51  0.0   0.1-    160205 926  0.2-  0.5+    160206 F51  0.1+  0.1-
    160205 F51  0.1+  0.0     160206 I52  0.4+  1.1+    160206 F51  0.1-  0.0
    160205 926  0.3+  0.4+    160206 I52  0.0   0.8-
    
    Ephemeris:
    2016 CE30                a,e,i = 1.36, 0.09, 9                   q = 1.2404
    Date    TT    R. A. (2000) Decl.     Delta      r     Elong.  Phase     V
    2016 01 07    11 02 35.9 +21 21 57   0.5107  1.3491   126.2    36.1    22.2
    ...
    2016 01 22    10 55 42.6 +20 17 42   0.4518  1.3687   142.0    26.3    21.6
    ...
    2016 01 30    10 45 03.0 +19 47 36   0.4294  1.3790   152.0    19.6    21.3
    ...
    2016 02 05    10 34 11.7 +19 22 07   0.4185  1.3866   160.0    14.0    21.1
    2016 02 06    10 32 11.5 +19 17 23   0.4172  1.3878   161.4    13.1    21.1
    2016 02 07    10 30 08.4 +19 12 28   0.4161  1.3891   162.8    12.1    21.0
    ...
    2016 02 13    10 17 07.3 +18 38 41   0.4133  1.3965   170.5     6.7    20.8
    ...
    2016 02 21    09 59 16.6 +17 40 38   0.4199  1.4060   172.3     5.4    20.8
    ...
    2016 03 07    09 31 47.6 +15 18 56   0.4635  1.4228   153.7    18.0    21.5
    
    A. U. Tomatic                (C) Copyright 2016 MPC           M.P.E.C. 2016-C67
    

    Read MPEC 2016-C66 Read MPEC 2016-C68


    MPEC number:

    Enter an MPEC number in one of the following forms:

    • 1997-B01 (the full form)
    • J97B01 (the packed version of the full form)
    • B01 (the abbreviated form)